Probability
0 0 0 0 0 0 0 0 0 0 0 0 0 0 0 0 0 0 0 0 0 0 0 0 0 0 0 0 0 0 0 0 0 0 0 0 0 0 0 0 0 0 0 0
0 0 0 0 0 0 0 0 0 0 0 0 0 0 0 0 0 0 0 0 0 0 0 0 0 0 0 0 0 0 0 0 0 0 0 0 0 0 0 0 0 0 0 0
0 0 0 0 0 0 0 0 0 0 0 0 0 0 0 0 0 0 0 0 0 0 0 0 0 0 0 0 0 0 0 0 0 0 0 0 0 0 0 0 0 0 0 0
0 0 0 0 0 0 0 0 0 0 0 0 0 0 0 0 0 0 0 0 0 0 0 0 0 0 0 0 0 0 0 0 0 0 0 0 0 0 0 0 0 0 0 0
0 0 0 0 0 0 0 0 0 0 0 0 0 0 0 0 0 0 0 0 0 0 0 0 0 0 0 0 0 0 0 0 0 0 0 0 0 0 0 0 0 0 0 0
0 0 0 0 0 0 0 0 0 0 0 0 0 0 0 0 0 0 0 0 0 0 0 0 0 0 0 0 0 0 0 0 0 0 0 0 0 0 0 0 0 0 0 0
0 0 0 0 0 0 0 0 0 0 0 0 0 0 0 0 0 0 0 0 0 0 0 0 0 0 0 0 0 0 0 0 0 0 0 0 0 0 0 0 0 0 0 0
0 0 0 0 0 0 0 0 0 0 0 0 0 0 0 0 0 0 0 0 0 0 0 0 0 0 0 0 0 0 0 0 0 0 0 0 0 0 0 0 0 0 0 0
0 0 0 0 0 0 0 0 0 0 0 0 0 0 0 0 0 0 0 0 0 0 0 0 0 0 0 0 0 0 0 0 0 0 0 0 0 0 0 0 0 0 0 0
0 0 0 0 0 0 0 0 0 0 0 0 0 0 0 0 0 0 0 0 0 0 0 0 0 0 0 0 0 0 0 0 0 0 0 0 0 0 0 0 0 0 0 0
0 0 0 0 0 0 0 0 0 0 0 0 0 0 0 0 0 0 0 0 0 0 0 0 0 0 0 0 0 0 0 0 0 0 0 0 0 0 0 0 0 0 0 0
0 0 0 0 0 0 0 0 0 0 0 0 0 0 0 0 0 0 0 0 0 0 0 0 0 0 0 0 0 0 0 0 0 0 0 0 0 0 0 0 0 0 0 0
0 0 0 0 0 0 0 0 0 0 0 0 0 0 0 0 0 0 0 0 0 0 0 0 0 0 0 0 0 0 0 0 0 0 0 0 0 0 0 0 0 0 0 0
0 0 0 0 0 0 0 0 0 0 0 0 0 0 0 0 0 0 0 0 0 0 0 0 0 0 0 0 0 0 0 0 0 0 0 0 0 0 0 0 0 0 0 0
0 0 0 0 0 0 0 0 0 0 0 0 0 0 0 0 0 0 0 0 0 0 0 0 0 0 0 0 0 0 0 0 0 0 0 0 0 0 0 0 0 0 0 0
0 0 0 0 0 0 0 0 0 0 0 0 0 0 0 0 0 0 0 0 0 0 0 0 0 0 0 0 0 0 0 0 0 0 0 0 0 0 0 0 0 0 0 0
0 0 0 0 0 0 0 0 0 0 0 0 0 0 0 0 0 0 0 0 0 0 0 0 0 0 0 0 0 0 0 0 0 0 0 0 0 0 0 0 0 0 0 0
0 0 0 0 0 0 0 0 0 0 0 0 0 0 0 0 0 0 0 0 0 0 0 0 0 0 0 0 0 0 0 0 0 0 0 0 0 0 0 0 0 0 0 0
0 0 0 0 0 0 0 0 0 0 0 0 0 0 0 0 0 0 0 0 0 0 0 0 0 0 0 0 0 0 0 0 0 0 0 0 0 0 0 0 0 0 0 0
0 0 0 0 0 0 0 0 0 0 0 0 0 0 0 0 0 0 0 0 0 0 0 0 0 0 0 0 0 0 0 0 0 0 0 0 0 0 0 0 0 0 0 0
0 0 0 0 0 0 0 0 0 0 0 0 0 0 0 0 0 0 0 0 0 0 0 0 0 0 0 0 0 0 0 0 0 0 0 0 0 0 0 0 0 0 0 0
0 0 0 0 0 0 0 0 0 0 0 0 0 0 0 0 0 0 0 0 0 0 0 0 0 0 0 0 0 0 0 0 0 0 0 0 0 0 0 0 0 0 0 0
0 0 0 0 0 0 0 0 0 0 0 0 0 0 0 0 0 0 0 0 0 0 0 0 0 0 0 0 0 0 0 0 0 0 0 0 0 0 0 0 0 0 0 0
0 0 0 0 0 0 0 0 0 0 0 0 0 0 0 0 0 0 0 0 0 0 0 0 0 0 0 0 0 0 0 0 0 0 0 0 0 0 0 0 0 0 0 0
0 0 0 0 0 0 0 0 0 0 0 0 0 0 0 0 0 0 0 0 0 0 0 0 0 0 0 0 0 0 0 0 0 0 0 0 0 0 0 0 0 0 0 0
0 0 0 0 0 0 0 0 0 0 0 0 0 0 0 0 0 0 0 0 0 0 0 0 0 0 0 0 0 0 0 0 0 0 0 0 0 0 0 0 0 0 0 0
Wind_Speed
1 2 3 4 6 4 3 5 7 5 3 6 11 14 13 9 9 11 11 10 10 9 8 6 7 7 7 8 8 8 8 7 6 5 5 4 4 4 4 4 4 5 5 6
3 4 5 3 4 5 5 6 6 5 2 5 9 14 12 10 11 11 11 10 9 8 7 6 6 6 8 9 9 8 8 7 7 6 5 3 3 4 4 3 4 5 5 6
5 1 3 5 4 5 7 7 6 5 4 4 7 9 8 7 8 9 9 9 9 8 8 7 7 7 8 9 9 8 8 8 7 7 4 3 3 2 3 5 5 5 6 6
4 3 3 5 5 6 6 4 5 5 4 3 3 6 5 6 8 9 9 9 9 8 7 7 7 7 8 9 8 8 8 8 8 7 7 8 6 6 6 5 5 5 6 7
3 2 4 5 4 6 3 1 3 4 3 4 3 6 6 3 7 8 9 9 9 8 7 7 8 8 8 8 8 8 8 8 8 8 8 9 8 6 4 5 6 6 6 7
2 1 2 2 1 3 2 2 2 2 3 5 4 6 7 4 6 5 5 6 6 6 6 6 6 6 6 6 7 7 7 8 8 8 8 9 9 8 7 7 6 6 5 6
3 3 2 1 2 3 3 2 1 2 3 4 2 6 9 4 3 4 5 5 5 4 5 5 5 5 5 6 7 7 8 8 8 8 9 9 9 9 9 8 8 7 5 6
4 4 4 3 3 4 5 4 3 3 4 3 3 8 7 2 3 4 4 4 3 3 3 4 5 5 5 6 7 7 8 8 8 8 9 9 9 7 7 8 7 7 6 6
4 3 2 1 1 3 4 4 1 1 0 4 6 7 8 3 3 2 2 2 2 2 3 3 4 4 5 5 6 7 7 7 7 8 8 8 8 8 8 8 8 6 6 5
4 3 1 1 2 1 1 3 3 4 3 5 6 6 5 3 3 2 2 3 3 3 3 3 3 3 4 4 5 5 6 6 6 6 6 5 7 7 7 7 8 8 7 7
2 4 2 3 6 6 5 4 4 3 3 4 5 5 2 3 3 3 4 4 3 3 3 3 3 3 3 3 3 4 4 5 5 5 5 5 5 6 6 6 7 7 7 7
3 3 3 4 1 1 4 6 7 5 5 5 4 7 1 1 3 4 5 5 4 4 3 3 2 2 2 2 3 3 4 4 5 4 4 5 5 5 5 6 6 6 7 7
4 4 2 2 3 3 5 6 6 3 2 5 7 8 2 2 3 3 4 5 5 4 3 3 2 2 2 3 3 3 4 4 4 4 4 5 5 5 5 6 6 6 6 6
2 4 7 7 2 5 6 7 8 7 6 8 12 12 8 7 7 7 6 5 5 4 3 3 3 3 3 3 3 3 4 4 4 4 4 5 5 5 5 5 5 5 6 6
3 5 6 7 5 4 7 9 11 13 12 11 11 12 13 11 9 8 6 5 4 5 5 4 4 4 4 4 4 3 3 3 3 4 4 4 4 4 4 4 4 4 5 6
3 4 3 6 5 6 9 12 14 15 14 15 15 17 12 10 7 8 7 6 6 6 6 5 5 5 5 4 4 3 3 3 3 4 4 4 3 3 3 3 4 4 4 5
3 4 3 5 2 4 11 12 15 11 12 12 15 14 8 8 8 8 7 6 6 7 6 6 6 5 5 4 4 4 4 3 3 3 3 3 3 3 3 3 3 4 4 4
6 4 3 3 2 10 6 2 9 11 11 12 12 10 8 7 6 4 4 5 7 7 7 6 5 5 5 4 3 3 2 2 2 2 2 2 3 3 3 3 4 4 3 4
7 6 4 3 6 10 7 4 6 8 8 8 12 12 9 6 6 5 3 4 6 6 6 5 5 4 3 3 2 1 1 1 1 2 2 3 3 3 3 4 4 3 3 3
4 5 5 5 7 9 5 2 2 4 6 2 5 8 5 2 4 3 4 5 6 5 4 4 4 3 2 2 1 1 1 1 2 2 2 2 2 2 3 3 3 2 2 2
5 6 8 9 9 10 3 1 4 5 3 2 1 3 2 4 5 5 6 6 6 5 5 4 3 2 2 2 1 1 1 2 3 2 1 1 1 2 2 2 1 1 1 1
10 8 8 7 8 10 2 5 6 2 3 2 2 2 3 5 6 7 7 7 6 6 5 4 3 3 3 2 1 2 3 3 2 1 1 1 1 1 1 1 1 1 2 2
9 8 6 9 7 1 4 3 1 2 2 2 3 3 3 5 7 7 7 7 6 6 5 4 3 3 3 2 2 2 3 3 2 1 1 1 1 1 0 1 1 1 1 2
4 2 3 5 5 3 3 2 2 2 3 4 4 5 4 6 7 7 6 6 6 5 4 3 3 3 3 2 2 3 3 2 1 1 1 0 0 0 0 0 1 1 2 2
3 3 3 5 4 3 3 3 4 4 4 5 6 5 5 7 8 8 6 6 5 5 4 3 3 3 4 3 3 3 3 1 1 1 1 1 1 0 0 1 1 2 2 2
4 5 6 6 3 4 4 3 2 3 4 5 6 6 5 5 7 7 6 5 5 5 4 3 3 4 4 3 3 3 2 1 1 1 1 1 1 1 1 1 1 1 2 1
Wind_Direction
116 173 208 216 220 248 238 238 257 261 250 248 254 264 266 255 242 246 245 241 239 241 241 228 220 210 204 201 199 197 197 197 195 188 189 194 202 201 204 206 205 202 196 190
166 222 233 230 213 222 230 245 262 274 266 258 272 270 265 249 242 241 245 244 242 243 238 223 214 207 205 204 202 201 203 198 202 201 197 205 203 205 208 205 211 210 200 196
202 194 218 202 199 217 232 241 253 273 297 249 285 268 242 238 240 243 242 241 240 236 235 224 215 214 210 210 207 205 206 202 204 203 192 182 189 198 203 211 212 213 205 199
223 236 199 205 215 223 241 232 247 254 272 281 295 285 252 238 244 236 236 236 239 237 234 231 222 221 218 217 211 211 209 205 202 200 201 198 202 209 213 210 207 206 206 202
206 205 204 216 229 218 231 151 228 236 243 270 240 262 271 229 245 243 238 237 240 237 234 231 227 225 225 219 211 208 208 208 203 207 211 212 216 219 211 205 208 208 206 206
226 203 238 240 237 204 159 152 167 201 228 254 229 239 271 231 243 258 244 239 242 242 240 240 236 230 227 217 209 207 207 211 206 209 216 218 219 215 208 207 209 211 206 207
229 203 189 200 166 158 188 199 239 230 228 247 164 233 256 269 258 259 263 262 261 251 243 241 237 229 227 219 211 210 212 215 211 212 218 222 224 220 216 213 214 211 207 211
221 223 188 193 209 191 195 215 218 250 259 282 192 240 257 294 288 275 274 269 271 258 248 243 238 233 233 227 217 215 217 218 213 214 220 220 221 223 223 220 217 213 213 215
216 228 126 180 227 196 176 202 259 173 353 276 255 264 281 250 272 277 285 284 276 272 273 265 258 245 240 232 225 222 222 223 220 219 221 220 219 222 225 221 216 216 216 214
206 228 215 177 182 180 258 158 165 194 232 264 272 259 258 265 276 297 310 300 292 297 300 288 276 268 257 247 237 229 227 229 231 229 227 225 223 225 225 219 216 215 214 212
215 207 202 195 207 195 171 177 189 186 234 241 273 268 220 242 286 298 305 304 297 294 286 283 281 277 277 271 252 239 235 236 236 233 230 230 229 224 223 220 218 215 212 209
196 208 229 221 170 287 224 208 189 203 213 221 253 269 104 264 316 313 312 320 315 311 304 297 297 300 297 289 268 251 245 243 242 236 228 229 232 225 225 226 221 216 215 213
172 186 220 213 192 200 226 215 209 211 192 206 225 252 94 18 328 320 317 322 323 322 324 322 317 303 292 284 275 262 251 248 244 234 224 225 229 226 228 228 223 217 215 214
193 212 224 241 235 175 212 214 204 200 217 228 235 257 278 292 304 313 319 319 319 320 318 312 300 290 286 282 276 272 263 252 242 231 223 223 227 229 229 227 223 219 216 214
207 235 240 262 261 232 234 227 211 216 227 237 252 258 271 283 288 297 306 311 314 313 309 302 294 289 288 285 282 277 273 258 236 224 224 230 232 231 228 225 223 221 220 219
205 228 236 259 242 241 255 244 225 229 236 245 263 271 274 280 284 287 296 299 296 298 298 297 293 288 284 281 279 277 271 261 235 222 226 228 225 223 226 226 220 219 219 218
193 190 220 254 257 261 256 232 208 213 219 221 239 254 276 280 282 287 295 293 291 295 294 290 285 281 278 275 269 264 262 251 236 234 236 229 224 222 225 224 216 217 216 214
190 194 224 258 230 240 245 165 198 213 232 228 244 264 277 281 300 300 296 291 295 299 296 291 290 289 292 293 283 275 264 246 242 240 241 241 233 231 226 221 225 226 222 219
210 198 207 222 244 264 271 198 181 206 247 230 240 258 273 299 297 281 309 294 289 298 301 302 300 296 300 300 296 276 244 240 252 261 260 252 238 229 225 224 226 224 221 224
193 200 209 213 232 243 250 153 176 185 251 240 229 259 276 293 279 304 356 334 315 315 320 322 321 316 313 322 317 256 251 252 263 270 272 272 249 231 228 229 225 219 212 216
175 195 212 221 238 257 278 150 166 202 258 25 255 267 253 236 271 321 329 326 324 322 322 327 330 326 326 340 321 265 263 267 283 294 290 288 272 250 241 230 216 201 185 175
187 188 200 199 224 247 121 142 190 246 15 9 336 308 264 261 287 304 312 315 319 322 327 331 327 324 341 352 310 279 280 301 319 319 310 308 307 282 254 194 183 174 175 172
210 205 197 200 217 10 139 180 266 8 331 325 314 310 295 287 289 296 303 307 311 314 317 325 316 319 335 336 301 274 303 331 340 335 311 320 343 330 330 189 183 176 186 199
229 273 214 231 251 241 218 253 298 310 291 297 300 303 295 289 292 294 296 303 308 313 314 319 312 304 308 319 314 303 327 339 325 280 281 296 303 340 359 248 216 208 205 208
228 191 225 244 267 289 265 253 273 289 294 299 301 298 290 288 291 292 296 300 305 313 317 309 292 291 299 311 306 315 325 324 281 272 273 286 270 225 219 226 229 226 237 228
204 198 210 239 238 242 269 291 297 287 293 296 299 304 303 288 286 293 296 302 308 311 315 308 300 297 300 305 304 310 310 285 246 249 253 250 244 234 230 225 301 310 274 264